Wind_Speed
11 8 8 9 21 26 30 34 24 34 34 25 19 15 9 15 16 16 15 15 16 18 20 22 22 22 23 22 22 20 18 17 16 15 15 16 17 18 18 18 18 16 15 15
15 14 14 16 16 21 32 33 32 30 22 20 19 14 15 18 17 18 17 17 17 19 19 18 20 22 20 19 19 17 15 14 13 14 14 14 15 16 15 13 14 12 11 10
6 10 14 16 27 29 29 31 33 41 33 26 23 24 23 20 18 14 16 18 19 19 17 17 17 16 17 18 18 17 16 15 14 14 13 12 11 9 10 10 9 9 9 7
4 4 2 12 11 12 20 26 31 30 26 29 26 22 24 22 19 18 20 19 19 18 17 16 16 16 16 17 20 19 18 16 15 13 11 10 9 8 8 7 6 6 5 6
5 8 18 18 15 15 14 19 18 24 21 19 30 23 25 24 21 18 19 18 17 16 16 16 17 17 18 18 19 20 19 17 14 12 11 11 9 7 8 7 7 8 8 6
8 4 5 3 5 6 9 19 13 13 23 24 30 36 33 26 23 19 16 14 14 13 14 14 14 14 15 15 15 17 17 16 14 13 10 10 11 10 9 8 7 6 5 3
21 10 13 12 9 5 6 4 5 8 15 25 25 17 12 16 15 14 13 13 13 11 10 10 10 10 10 11 10 11 13 13 12 11 13 13 11 10 8 7 6 5 5 4
18 11 12 8 12 13 6 6 4 2 13 20 18 16 15 14 13 11 11 10 12 11 9 8 7 8 7 7 9 11 11 11 13 14 13 12 10 9 8 8 7 6 5 6
14 8 7 4 10 6 9 4 4 3 7 11 13 13 12 13 14 13 12 11 12 9 9 8 6 5 4 4 6 8 10 13 14 13 11 10 9 9 9 8 8 7 7 8
11 13 15 13 9 6 5 9 10 8 8 9 14 18 18 16 14 14 13 12 12 8 8 7 7 6 5 4 6 8 11 11 11 11 11 11 10 10 9 9 9 9 10 10
23 21 16 12 10 7 8 10 11 13 13 13 14 15 13 17 18 15 14 13 12 11 8 8 7 7 7 7 8 9 11 12 12 13 13 12 11 11 11 11 11 12 12 12
24 17 15 14 17 15 10 10 10 12 14 14 16 16 17 16 15 13 16 17 18 15 15 15 10 9 10 9 11 12 14 14 14 15 14 13 13 12 12 13 13 14 14 14
19 20 20 15 12 12 12 11 11 13 15 16 16 18 19 18 16 15 14 15 16 17 17 16 16 12 11 12 14 15 16 16 15 16 15 15 14 14 14 15 15 15 16 16
9 13 22 23 22 21 19 19 20 19 18 17 18 19 20 22 18 17 17 16 15 15 15 15 14 12 14 15 14 16 17 17 17 18 17 17 16 16 16 17 17 17 18 18
18 17 16 15 17 20 22 24 24 23 21 20 19 20 24 23 23 22 22 22 19 17 17 17 13 13 17 16 18 17 18 18 18 19 19 19 18 18 19 19 18 19 20 20
15 13 15 17 18 20 23 25 25 26 27 27 25 23 21 25 24 25 22 22 21 19 20 21 21 19 20 19 19 21 20 20 20 20 21 21 21 21 20 20 20 21 22 22
21 19 19 21 22 22 23 24 24 24 26 27 27 26 26 24 25 26 25 24 24 23 22 22 21 25 24 24 20 22 25 22 21 22 22 23 24 23 22 22 22 23 24 24
26 28 29 28 24 23 23 25 26 26 24 22 22 24 26 29 29 28 28 27 25 23 21 19 20 26 27 28 24 22 21 22 24 24 24 25 25 25 23 24 25 25 25 26
24 21 19 21 22 21 22 24 20 18 18 19 22 23 25 26 26 27 29 29 28 25 24 26 25 25 28 28 29 30 29 24 26 28 30 29 29 30 31 29 26 27 28 27
18 17 14 14 17 16 15 14 12 12 15 17 16 16 18 21 22 22 22 21 23 25 26 27 25 23 26 27 29 31 31 32 32 33 34 35 33 31 31 29 26 28 28 27
7 8 9 9 8 7 7 7 8 9 5 1 4 6 8 11 14 17 19 21 23 25 26 28 26 30 28 28 30 29 30 31 31 32 35 35 33 35 34 31 27 26 26 27
7 7 8 8 8 5 4 4 5 6 7 7 8 9 9 9 8 8 13 18 21 22 24 26 25 26 25 25 26 27 29 32 34 36 37 35 32 33 33 32 31 29 27 28
3 2 1 2 3 5 7 8 11 12 13 14 15 16 17 17 17 17 16 14 12 16 18 20 24 25 25 26 25 23 21 21 21 22 24 25 28 31 31 29 32 33 31 31
5 7 8 10 12 14 15 17 18 19 20 20 20 20 20 20 19 18 18 20 19 18 16 15 16 17 17 18 19 20 21 21 21 21 21 21 22 25 28 31 33 33 34 35
10 12 14 16 17 18 18 18 19 19 19 18 17 17 16 16 16 16 16 16 18 20 22 23 22 22 22 23 24 25 26 26 26 26 25 26 27 27 28 29 30 33 35 36
10 12 14 15 15 16 16 16 16 16 16 16 16 15 15 15 14 15 15 16 16 17 18 20 21 23 25 27 28 30 31 31 31 31 30 29 29 30 30 31 32 34 34 34
17 18 19 17 15 14 14 15 15 16 16 16 17 17 16 16 16 16 16 16 17 17 18 18 19 20 21 22 23 25 27 28 29 30 30 32 32 34 35 33 31 31 33 32
Wind_Direction
241 230 219 227 224 219 220 228 232 248 251 265 265 257 235 224 215 218 233 255 270 272 276 277 276 273 271 261 253 250 252 254 259 262 268 269 269 267 269 271 274 267 267 269
247 247 249 248 232 227 237 242 243 245 249 244 244 231 226 214 226 243 246 266 277 284 282 279 277 277 267 252 244 242 246 253 255 260 267 275 275 268 267 266 267 266 269 272
249 245 249 267 247 239 238 240 242 240 248 240 240 240 237 229 249 252 272 280 285 288 284 283 279 274 262 251 244 243 249 251 252 268 271 276 271 262 263 260 259 269 262 254
260 210 273 244 237 239 245 253 249 248 248 234 242 239 230 238 247 261 277 276 281 283 279 281 284 277 269 260 250 245 248 252 253 265 262 266 263 262 255 250 233 202 165 142
235 229 276 268 243 242 255 256 253 241 230 221 216 218 224 232 247 259 262 268 272 276 275 280 283 279 273 263 257 250 248 246 250 252 252 252 244 212 177 176 167 146 140 137
226 253 246 272 226 240 252 267 252 241 216 215 217 224 234 246 242 249 250 254 266 279 277 284 287 279 273 270 259 246 243 240 238 238 237 198 179 181 171 159 156 156 157 176
227 243 274 257 232 247 225 296 283 257 220 212 216 221 214 229 231 234 248 259 272 288 292 293 292 285 281 262 252 239 226 223 218 206 186 184 186 177 173 174 181 187 210 239
229 229 259 256 225 225 257 289 289 276 196 204 215 224 224 216 224 248 262 273 282 288 299 295 295 296 281 257 237 229 220 208 193 190 192 193 189 190 197 201 207 223 243 262
212 235 256 261 223 253 249 241 252 235 192 196 201 208 211 226 232 246 256 274 286 289 306 293 288 281 264 230 214 202 187 183 189 198 199 199 203 211 217 224 233 245 259 273
243 256 253 255 253 253 262 233 233 235 242 249 226 213 214 225 231 245 252 261 270 277 285 284 265 252 239 213 192 186 189 195 204 209 211 213 218 224 232 240 250 262 270 279
249 249 260 271 253 251 260 249 243 243 250 257 263 270 266 237 223 230 251 256 262 268 283 290 273 255 245 234 227 224 223 220 218 218 220 224 225 231 239 248 257 264 271 278
251 266 272 269 249 266 255 246 249 248 249 261 254 252 258 260 250 249 254 252 259 267 277 282 283 266 250 242 240 240 237 230 229 228 228 233 236 241 247 253 260 266 272 278
257 259 261 263 250 238 253 256 266 267 266 265 262 256 250 254 252 250 253 256 255 256 266 268 256 266 260 248 243 241 245 242 239 240 238 240 245 250 256 260 264 268 273 278
261 265 254 255 250 255 260 264 269 273 272 269 263 261 256 251 244 245 246 249 257 261 261 269 266 259 264 252 251 247 246 247 248 248 246 245 250 254 256 258 264 269 273 277
266 254 255 257 256 257 263 267 267 263 264 269 269 268 256 251 254 249 250 246 246 255 261 262 270 262 268 262 248 255 249 246 245 250 252 252 253 257 261 265 268 271 275 278
262 252 252 256 260 264 265 265 264 263 265 269 269 265 263 252 251 255 255 260 258 254 253 251 243 247 264 268 264 261 260 249 248 249 252 254 256 257 260 264 268 272 275 277
273 272 268 268 272 269 264 264 265 264 265 265 265 261 258 258 254 254 258 260 262 262 262 256 248 244 257 265 257 251 255 257 256 251 255 255 256 259 261 265 269 272 274 277
267 271 271 271 272 270 270 266 261 261 263 264 264 264 261 257 256 257 258 257 259 256 255 252 252 245 251 254 259 260 257 254 259 258 255 255 257 258 262 265 269 271 274 277
266 265 263 265 267 262 264 270 271 258 260 265 265 265 262 259 256 256 257 255 252 254 255 256 254 250 252 255 261 261 260 264 262 263 265 263 258 255 256 255 262 268 271 274
265 267 271 259 254 257 262 259 256 263 273 271 272 274 273 260 256 253 253 255 248 247 250 256 257 260 256 256 263 263 265 261 261 264 264 267 265 265 268 268 269 271 270 269
260 246 239 238 242 224 219 236 241 247 226 347 292 286 291 274 260 254 252 250 251 250 252 257 260 260 266 263 257 260 263 260 265 267 266 267 264 263 264 268 274 278 280 275
105 112 128 139 139 116 80 34 7 350 339 325 313 311 312 316 320 293 265 258 258 256 255 257 267 260 263 264 261 263 265 266 267 268 267 268 262 258 261 264 272 277 283 285
181 180 202 264 284 291 296 298 299 301 301 299 297 295 294 296 292 280 276 278 279 264 264 261 262 264 264 264 265 264 263 267 272 273 273 269 262 257 256 258 263 269 277 284
251 268 275 278 282 286 289 291 294 295 296 295 293 291 290 289 287 283 274 267 265 267 272 274 270 267 267 268 265 267 270 271 272 273 271 269 268 267 265 263 266 267 270 275
283 287 291 291 291 292 292 293 295 297 298 297 298 297 292 286 283 282 280 276 270 266 265 266 266 268 269 270 271 272 272 270 268 268 268 267 266 266 267 268 270 271 272 275
289 294 298 299 296 297 297 295 293 294 298 302 303 302 300 297 292 289 287 284 279 274 272 271 271 271 271 271 272 272 272 272 271 269 269 269 271 272 271 271 269 269 273 274
289 292 292 287 289 294 299 301 300 299 298 298 297 298 299 298 297 294 292 290 287 285 283 281 279 278 277 276 276 276 277 278 276 278 273 274 267 264 267 270 272 273 274 273
Height
3050 3049 3049 3048 3049 3050 3050 3051 3051 3051 3051 3054 3056 3059 3058 3060 3061 3063 3065 3066 3066 3066 3065 3064 3062 3061 3059 3059 3060 3061 3062 3062 3062 3063 3062 3062 3061 3061 3060 3060 3059 3059 3058 3058
3046 3046 3045 3044 3045 3045 3045 3045 3046 3046 3046 3050 3054 3054 3055 3057 3059 3061 3062 3061 3061 3060 3059 3058 3057 3055 3054 3054 3055 3056 3057 3058 3058 3058 3058 3057 3056 3056 3055 3055 3055 3054 3053 3053
3044 3042 3041 3040 3035 3036 3036 3037 3038 3038 3039 3045 3047 3048 3050 3053 3055 3056 3057 3056 3056 3055 3054 3053 3051 3050 3049 3049 3050 3052 3053 3053 3054 3054 3053 3052 3052 3051 3051 3051 3051 3050 3049 3050
3042 3042 3042 3030 3029 3029 3029 3030 3032 3032 3034 3040 3042 3044 3047 3049 3051 3052 3052 3052 3051 3050 3049 3048 3047 3045 3045 3045 3046 3047 3048 3048 3049 3049 3049 3048 3048 3048 3048 3048 3048 3047 3047 3047
3040 3038 3029 3025 3026 3026 3026 3025 3024 3025 3030 3033 3036 3039 3041 3044 3047 3049 3049 3049 3048 3047 3045 3044 3042 3040 3040 3039 3040 3041 3042 3044 3044 3045 3045 3045 3045 3045 3046 3047 3047 3046 3046 3046
3038 3037 3031 3024 3022 3023 3023 3020 3020 3021 3024 3027 3030 3032 3036 3041 3044 3045 3045 3045 3044 3043 3041 3039 3037 3035 3035 3034 3034 3035 3037 3038 3040 3041 3041 3042 3043 3045 3045 3045 3045 3046 3046 3046
3034 3033 3025 3022 3022 3021 3023 3025 3018 3019 3020 3022 3025 3032 3036 3037 3039 3041 3041 3041 3040 3038 3036 3035 3033 3032 3031 3031 3031 3032 3034 3035 3036 3038 3040 3041 3042 3043 3043 3043 3043 3044 3044 3044
3030 3030 3025 3019 3020 3021 3021 3019 3019 3018 3018 3021 3026 3029 3031 3033 3035 3037 3037 3037 3036 3034 3033 3032 3031 3030 3029 3029 3029 3030 3031 3032 3035 3037 3039 3039 3040 3041 3042 3042 3042 3042 3041 3041
3021 3019 3018 3017 3018 3018 3018 3019 3020 3020 3021 3023 3025 3027 3029 3031 3033 3034 3033 3034 3032 3031 3030 3029 3028 3029 3028 3028 3028 3028 3029 3032 3034 3036 3036 3037 3038 3040 3040 3040 3040 3039 3039 3038
3017 3015 3015 3016 3017 3017 3017 3018 3018 3019 3020 3021 3022 3023 3025 3027 3029 3030 3031 3031 3030 3029 3029 3028 3028 3027 3027 3027 3027 3028 3029 3031 3032 3033 3034 3035 3036 3037 3037 3037 3037 3037 3036 3035
3010 3011 3012 3013 3013 3014 3014 3015 3016 3017 3018 3019 3019 3020 3021 3022 3024 3025 3027 3027 3027 3027 3027 3026 3025 3024 3025 3025 3026 3027 3028 3029 3030 3030 3032 3032 3033 3033 3033 3034 3034 3033 3033 3032
3004 3007 3008 3008 3010 3011 3011 3013 3013 3014 3015 3016 3016 3017 3017 3018 3019 3020 3021 3022 3023 3023 3023 3022 3022 3022 3022 3022 3024 3025 3026 3026 3027 3027 3028 3029 3029 3029 3029 3029 3029 3029 3028 3028
3001 3002 3003 3005 3006 3007 3008 3009 3010 3011 3011 3012 3012 3013 3013 3014 3015 3015 3017 3017 3018 3018 3018 3019 3019 3019 3019 3020 3021 3022 3023 3023 3023 3024 3024 3024 3024 3025 3025 3025 3025 3024 3024 3023
2996 2996 2997 2999 3001 3002 3003 3004 3005 3006 3006 3006 3007 3008 3008 3009 3010 3011 3012 3013 3013 3014 3015 3015 3015 3015 3016 3017 3017 3017 3017 3018 3019 3020 3019 3019 3019 3020 3019 3019 3019 3019 3018 3017
2990 2991 2993 2994 2995 2996 2998 2998 2998 2999 3000 3001 3002 3002 3002 3004 3004 3005 3006 3007 3008 3010 3010 3011 3011 3011 3011 3010 3011 3011 3012 3012 3013 3014 3014 3014 3014 3014 3014 3014 3014 3013 3012 3011
2985 2986 2988 2989 2990 2991 2991 2992 2993 2993 2993 2994 2994 2995 2995 2997 2998 2999 3000 3001 3002 3002 3003 3004 3004 3005 3005 3005 3006 3005 3006 3006 3007 3007 3007 3008 3008 3008 3008 3007 3007 3006 3006 3004
2980 2982 2983 2983 2984 2984 2985 2985 2985 2985 2985 2985 2986 2987 2988 2989 2991 2992 2993 2994 2995 2996 2996 2997 2998 2998 2998 2998 2998 2999 2999 3000 3000 3000 3001 3001 3001 3001 3001 3001 3000 3000 2999 2997
2974 2975 2975 2976 2976 2976 2976 2976 2977 2977 2978 2978 2978 2979 2980 2981 2983 2984 2985 2986 2987 2989 2990 2990 2990 2990 2990 2991 2992 2992 2992 2992 2993 2993 2993 2993 2994 2993 2993 2993 2993 2992 2991 2990
2966 2966 2967 2968 2968 2969 2969 2969 2969 2969 2970 2971 2971 2971 2971 2972 2973 2975 2976 2977 2979 2981 2982 2981 2982 2982 2983 2984 2984 2985 2985 2985 2985 2985 2985 2985 2984 2984 2983 2984 2985 2984 2984 2983
2960 2961 2960 2961 2962 2963 2963 2964 2964 2965 2965 2965 2964 2964 2964 2964 2965 2966 2967 2969 2970 2972 2973 2974 2975 2975 2975 2976 2976 2976 2976 2976 2976 2976 2975 2975 2976 2976 2976 2976 2976 2975 2975 2974
2956 2956 2957 2958 2959 2960 2961 2961 2962 2962 2962 2961 2961 2960 2959 2959 2959 2959 2961 2962 2962 2964 2965 2966 2966 2967 2966 2966 2966 2967 2967 2967 2966 2966 2966 2966 2967 2967 2967 2968 2968 2967 2966 2965
2958 2958 2959 2960 2960 2961 2961 2961 2961 2961 2960 2960 2960 2959 2958 2957 2956 2955 2955 2956 2956 2956 2957 2957 2957 2958 2958 2958 2958 2958 2958 2957 2957 2956 2956 2955 2956 2956 2958 2959 2959 2959 2958 2957
2959 2959 2960 2960 2960 2961 2961 2960 2960 2959 2958 2957 2956 2955 2954 2953 2952 2952 2951 2951 2950 2950 2950 2950 2950 2950 2949 2949 2950 2949 2949 2949 2948 2947 2946 2946 2946 2946 2948 2949 2949 2949 2949 2948
2958 2958 2958 2958 2958 2958 2957 2956 2955 2954 2953 2951 2950 2949 2948 2947 2946 2945 2944 2944 2944 2944 2944 2944 2943 2943 2943 2943 2942 2942 2942 2942 2941 2940 2939 2939 2938 2938 2939 2939 2939 2940 2939 2938
2956 2956 2955 2954 2954 2953 2952 2951 2950 2948 2947 2945 2944 2943 2942 2941 2940 2939 2938 2938 2937 2937 2937 2937 2937 2937 2937 2937 2937 2936 2935 2934 2933 2932 2931 2931 2931 2930 2930 2930 2930 2929 2928 2928
2953 2953 2952 2951 2950 2948 2947 2946 2944 2943 2942 2941 2940 2939 2938 2937 2936 2935 2934 2933 2932 2931 2931 2930 2930 2929 2928 2928 2927 2926 2925 2925 2923 2923 2923 2922 2922 2921 2921 2920 2919 2918 2917 2917
2949 2948 2947 2947 2946 2944 2943 2942 2940 2939 2938 2937 2935 2934 2933 2932 2931 2930 2929 2928 2927 2926 2925 2924 2923 2922 2921 2920 2919 2917 2916 2915 2914 2913 2912 2912 2911 2911 2910 2910 2909 2908 2907 2906